Home > Weather > Rostov-on-Don > Past weeks

Flag for Russia Past Weather in Rostov-on-Don, Russia — Yesterday and Last 2 Weeks

Now
70 °F

Mild.


Feels Like: 70 °F
Forecast: 60 / 71 °F
Wind: 6 mph from Southwest

Location: Rostov-Na-Donu

Current Time: May 30, 2016 at 5:30:29 PM

Latest Report: May 30, 2016 at 5:00 PM


Visibility: N/A

Pressure: 29.80 "Hg

Humidity: 78%

Dew Point: 63 °F

Location of Rostov-on-DonLocation

Past Weather in Rostov-on-Don — Graph

°F

Rostov-on-Don Temperature Yesterday

Maximum temperature yesterday: 77 °F (at 3:00 PM)
Minimum temperature yesterday: 59 °F (at 2:30 AM)
Average temperature yesterday: 68 °F

High & Low Weather Summary for the Past Weeks

 TemperatureHumidityPressure
High81 °F (May 28, 4:00 PM)100% (May 24, 5:30 AM)30.07 "Hg (May 24, 5:30 AM)
Low48 °F (May 21, 3:30 AM)31% (May 22, 2:00 PM)29.65 "Hg (May 15, 4:00 PM)
Average63 °F73%29.86 "Hg
* Reported May 15 4:00 PM — May 30 4:00 PM, Rostov-on-Don, Weather by CustomWeather, © 2016

Note: Actual official high and low records may vary slightly from our data, if they occured in-between our weather recording intervals... More about our weather records

Advertising

Rostov-on-Don Weather History for the Previous 24 Hours

Scroll right to see more
 ConditionsComfort  
Time TempWeatherWind HumidityBarometerVisibility
4:00 PM
Mon, May 30
70 °FMild.6 mph78%29.80 "HgN/A
3:30 PM72 °FScattered clouds.6 mph73%29.80 "HgN/A
3:00 PM70 °FScattered clouds.6 mph78%29.80 "HgN/A
2:30 PM68 °FSprinkles. Cloudy.6 mph83%29.80 "HgN/A
2:00 PM66 °FSprinkles. Cloudy.6 mph88%29.83 "Hg4 mi
1:30 PM66 °FSprinkles. Cloudy.8 mph88%29.83 "Hg4 mi
1:00 PM66 °FSprinkles. Cloudy.8 mph88%29.83 "Hg4 mi
12:30 PM64 °FSprinkles. Cloudy.8 mph88%29.83 "Hg4 mi
12:00 PM64 °FSprinkles. Scattered clouds.8 mph94%29.83 "Hg5 mi
11:30 AM64 °FSprinkles. Fog.8 mph94%29.83 "Hg3 mi
11:00 AM64 °FSprinkles. Scattered clouds.10 mph88%29.83 "Hg5 mi
10:30 AM64 °FScattered clouds.8 mph88%29.83 "Hg5 mi
10:00 AM64 °FSprinkles. Fog.8 mph94%29.80 "Hg3 mi
9:30 AM66 °FSprinkles. Cloudy.3 mph88%29.80 "Hg4 mi
9:00 AM64 °FSprinkles. Cloudy.8 mph94%29.80 "Hg4 mi
8:00 AM64 °FScattered clouds.6 mph88%29.80 "HgN/A
7:30 AM64 °FScattered clouds.6 mph94%29.80 "HgN/A
7:00 AM66 °FScattered clouds.6 mph88%29.80 "HgN/A
6:30 AM64 °FScattered clouds.6 mph94%29.80 "HgN/A
6:00 AM64 °FScattered clouds.3 mph88%29.80 "HgN/A
5:30 AM64 °FPassing clouds.3 mph88%29.80 "HgN/A
5:00 AM63 °FPassing clouds.1 mph94%29.80 "HgN/A
4:30 AM63 °FPassing clouds.1 mph88%29.80 "Hg5 mi
4:00 AM63 °FPassing clouds.1 mph88%29.80 "Hg5 mi
3:30 AM63 °FPassing clouds.1 mph94%29.80 "Hg5 mi
3:00 AM63 °FSprinkles. Passing clouds.6 mph94%29.80 "Hg5 mi
2:30 AM64 °FSprinkles. Passing clouds.6 mph88%29.80 "Hg5 mi
2:00 AM64 °FSprinkles. Passing clouds.6 mph88%29.80 "Hg5 mi
1:30 AM64 °FSprinkles. Passing clouds.3 mph88%29.80 "Hg5 mi
1:00 AM66 °FMild.3 mph83%29.83 "Hg5 mi
12:30 AM66 °FMild.3 mph83%29.83 "Hg5 mi
12:00 AM66 °FSprinkles. Overcast.1 mph78%29.83 "Hg5 mi
11:30 PM
Sun, May 29
66 °FSprinkles. Overcast.1 mph83%29.83 "Hg5 mi
11:00 PM70 °FSprinkles. Passing clouds.3 mph69%29.83 "Hg4 mi
10:30 PM70 °FPassing clouds.3 mph64%29.83 "Hg5 mi
10:00 PM70 °FPassing clouds.3 mph64%29.83 "Hg5 mi
9:30 PM70 °FPassing clouds.3 mph69%29.83 "Hg5 mi
9:00 PM70 °FPassing clouds.3 mph69%29.86 "Hg5 mi
8:30 PM72 °FPassing clouds.3 mph61%29.83 "Hg5 mi
8:00 PM73 °FPassing clouds.3 mph57%29.86 "HgN/A
7:30 PM73 °FPassing clouds.3 mph57%29.83 "HgN/A
7:00 PM73 °FPassing clouds.3 mph57%29.83 "HgN/A
6:30 PM75 °FPassing clouds.3 mph57%29.83 "HgN/A
6:00 PM75 °FPassing clouds.6 mph50%29.83 "HgN/A
5:00 PM75 °FPassing clouds.6 mph50%29.83 "HgN/A
Weather by CustomWeather, © 2016

See weather overviewHow to use our weather pages